Location: Fort Worth, Tx
(32.7431°N, 97.3695°W)
Time: 15:21:07
(UTC-04:00)

FO-29 - Visible Passes

Search period start: 22 April 2024 00:00
Search period end: 02 May 2024 00:00
Orbit: 800 x 1321 km, 98.6° (Epoch: 21 April)

Date Brightness Start Highest point End Pass type
(mag) Time Alt. Az. Time Alt. Az. Time Alt. Az.
22 Apr 10.9 03:42:01 10° NNE 03:48:04 44° ENE 03:48:04 44° ENE visible
22 Apr 10.9 05:27:28 10° N 05:34:04 32° WNW 05:34:33 32° WNW visible
23 Apr 12.0 02:48:58 10° NE 02:52:20 17° ENE 02:52:20 17° ENE visible
23 Apr 10.1 04:31:40 10° N 04:38:50 73° NNW 04:38:50 73° NNW visible
23 Apr 11.7 06:19:49 10° NNW 06:23:14 14° WNW 06:25:19 12° WNW visible
24 Apr 10.9 03:36:58 10° NNE 03:43:07 42° ENE 03:43:07 42° ENE visible
24 Apr 10.8 05:22:14 10° N 05:29:01 35° WNW 05:29:36 34° WNW visible
25 Apr 12.0 02:44:10 10° NE 02:47:24 16° ENE 02:47:24 16° ENE visible
25 Apr 10.0 04:26:32 10° N 04:33:52 78° NNW 04:33:52 78° NNW visible
25 Apr 11.7 06:14:18 10° NNW 06:18:12 15° WNW 06:20:21 13° WNW visible
26 Apr 11.0 03:31:56 10° NNE 03:38:09 40° ENE 03:38:09 40° ENE visible
26 Apr 10.7 05:17:01 10° N 05:23:59 37° WNW 05:24:38 37° WNW visible
27 Apr 12.1 02:39:26 10° ENE 02:42:25 15° E 02:42:25 15° E visible
27 Apr 10.0 04:21:24 10° NNE 04:28:54 82° N 04:28:54 82° N visible
27 Apr 11.6 06:08:52 10° NNW 06:13:11 16° WNW 06:15:23 14° W visible
28 Apr 11.1 03:26:55 10° NNE 03:33:10 37° E 03:33:10 37° E visible
28 Apr 10.6 05:11:49 10° N 05:18:56 40° WNW 05:19:39 39° W visible
29 Apr 12.1 02:34:48 10° ENE 02:37:25 13° E 02:37:25 13° E visible
29 Apr 10.0 04:16:18 10° NNE 04:23:54 84° NE 04:23:54 84° NE visible
29 Apr 11.6 06:03:30 10° NNW 06:08:08 17° WNW 06:10:23 15° W visible
30 Apr 11.1 03:21:55 10° NNE 03:28:09 35° E 03:28:09 35° E visible
30 Apr 10.5 05:06:38 10° N 05:13:53 42° WNW 05:14:38 41° W visible
01 May 12.2 02:30:19 10° ENE 02:32:24 12° E 02:32:24 12° E visible
01 May 10.0 04:11:12 10° NNE 04:18:53 81° ENE 04:18:53 81° ENE visible
01 May 11.5 05:58:09 10° NNW 06:03:06 19° WNW 06:05:22 16° W visible
